EW7349 Weather Reports


time (UTC)temp
F
wind
direction
speed
knots
gust
knots
rain 1hr
in
rain 24hr
in
rain mn
in
humidity
%
barometer
mb
20260904231703 75 261 0.0 0.0 0.00 0.63 0.57 93 1012.2
20260904231157 75 261 0.0 0.0 0.00 0.63 0.57 93 1012.2
20260904230651 75 261 0.0 0.9 0.00 0.63 0.57 92 1012.2
20260904230144 75 261 0.0 0.9 0.00 0.63 0.57 92 1012.3
20260904225639 75 261 0.0 0.9 0.00 0.63 0.57 92 1012.2
20260904225133 75 261 0.0 0.9 0.00 0.63 0.57 92 1012.2
20260904224628 75 261 0.0 0.0 0.00 0.63 0.57 92 1012.4
20260904224122 75 261 0.0 0.9 0.00 0.63 0.57 92 1012.2
20260904224059 75 261 0.0 0.0 0.00 0.63 0.57 92 1012.3
20260904223109 75 261 0.0 0.0 0.00 0.63 0.57 91 1012.1
20260904222604 75 261 0.0 0.0 0.00 0.63 0.57 91 1012.2
20260904222057 75 261 0.0 0.0 0.00 0.63 0.57 91 1012.2
20260904221550 75 261 0.0 0.9 0.00 0.63 0.57 91 1012.1
20260904221309 75 261 0.0 0.9 0.00 0.63 0.57 91 1012.3
20260904220539 75 261 0.0 0.9 0.00 0.63 0.57 91 1012.6
20260904220036 75 261 0.0 0.0 0.00 0.63 0.57 90 1012.6
20260904220014 75 261 0.0 0.0 0.00 0.63 0.57 90 1013.0
20260904215021 75 261 0.0 0.0 0.01 0.63 0.57 90 1013.2
20260904214515 75 261 0.0 0.9 0.03 0.63 0.57 89 1013.2
20260904214228 75 261 0.0 0.9 0.06 0.63 0.57 89 1013.7
20260904213503 76 261 0.0 0.9 0.09 0.63 0.57 88 1013.7
20260904212957 76 261 0.0 0.9 0.13 0.63 0.57 88 1013.8
20260904212451 76 261 0.0 0.9 0.19 0.63 0.57 88 1013.8
20260904211945 76 313 0.0 0.9 0.25 0.63 0.57 87 1013.8
20260904211439 77 331 0.0 0.9 0.26 0.63 0.57 87 1013.4
20260904210934 77 66 0.0 0.9 0.26 0.63 0.57 86 1013.0
20260904210427 77 66 0.0 0.9 0.26 0.63 0.57 85 1013.0
20260904205921 78 66 0.0 0.9 0.26 0.63 0.57 85 1012.6
20260904205639 78 66 0.0 0.9 0.26 0.63 0.57 84 1012.8
20260904205146 79 63 0.0 1.7 0.25 0.62 0.56 82 1012.8
20260904204642 79 99 0.9 6.1 0.23 0.60 0.54 80 1012.6
20260904203919 80 44 1.7 8.7 0.20 0.57 0.51 79 1013.1
20260904203913 82 115 2.6 8.7 0.16 0.53 0.48 78 1013.8
20260904202919 83 345 2.6 10.4 0.12 0.49 0.43 79 1013.6
20260904202642 85 108 3.5 10.4 0.05 0.42 0.37 78 1013.5
20260904201918 86 46 1.7 9.6 0.00 0.37 0.31 78 1013.7
20260904201418 87 10 0.0 1.7 0.00 0.37 0.31 77 1013.5
20260904200920 87 254 0.0 0.0 0.00 0.37 0.31 76 1013.1
20260904200416 87 254 0.0 0.9 0.00 0.37 0.31 76 1013.1
20260904195916 87 254 0.0 0.9 0.00 0.37 0.31 76 1012.8
20260904195907 88 254 0.0 0.0 0.00 0.37 0.31 76 1012.4
20260904194913 88 254 0.0 0.0 0.00 0.37 0.31 75 1012.2
20260904194902 88 254 0.0 0.9 0.00 0.37 0.31 73 1012.3
20260904193912 88 254 0.0 0.9 0.00 0.37 0.31 73 1012.6
20260904193416 88 254 0.0 0.0 0.00 0.37 0.31 74 1012.9
20260904192913 88 254 0.0 0.0 0.00 0.37 0.31 73 1012.9
20260904192413 87 254 0.0 0.0 0.00 0.37 0.31 74 1012.8
20260904191913 87 254 0.0 0.0 0.00 0.37 0.31 72 1012.9
20260904191412 88 254 0.0 0.0 0.00 0.37 0.31 72 1012.9
20260904190912 89 254 0.0 0.0 0.00 0.37 0.31 69 1012.8
20260904190408 90 254 0.0 0.9 0.00 0.37 0.31 66 1012.9
20260904185909 90 254 0.0 1.7 0.00 0.37 0.31 64 1012.8
20260904185407 91 254 0.0 1.7 0.00 0.37 0.31 60 1012.8
20260904185129 92 292 0.9 2.6 0.00 0.37 0.31 58 1012.8
20260904184408 94 332 0.9 2.6 0.00 0.37 0.31 54 1012.9
20260904183909 94 230 0.9 2.6 0.00 0.37 0.31 57 1013.1
20260904183408 95 144 0.0 2.6 0.00 0.37 0.31 53 1013.2
20260904183138 94 135 0.9 2.6 0.00 0.37 0.31 56 1013.4
20260904182409 95 128 0.9 2.6 0.00 0.37 0.31 55 1013.5
20260904181908 94 52 0.9 2.6 0.00 0.37 0.31 54 1013.6
20260904181407 92 39 0.9 3.5 0.00 0.37 0.31 57 1013.7
20260904180907 94 322 0.9 3.5 0.00 0.37 0.31 54 1013.8
20260904180408 93 241 0.9 1.7 0.00 0.37 0.31 55 1013.8
20260904175906 93 142 0.9 4.3 0.00 0.37 0.31 58 1013.8
20260904175630 93 51 0.9 4.3 0.00 0.37 0.31 58 1013.9
20260904175352 91 226 0.9 2.6 0.00 0.37 0.31 56 1013.8
20260904174406 92 313 0.9 2.6 0.00 0.37 0.31 54 1013.9
20260904173903 93 38 0.9 3.5 0.00 0.37 0.31 56 1014.0
20260904173403 92 313 1.7 3.5 0.00 0.37 0.31 57 1014.0
20260904172904 92 95 1.7 3.5 0.00 0.37 0.31 59 1014.0
20260904172406 91 202 1.7 6.1 0.00 0.37 0.31 57 1014.1
20260904171903 92 84 0.9 6.1 0.00 0.37 0.31 57 1014.2
20260904171402 91 159 0.9 4.3 0.00 0.37 0.31 58 1014.2
20260904170902 91 296 0.9 2.6 0.00 0.37 0.31 59 1014.2
20260904170402 91 276 1.7 3.5 0.00 0.37 0.31 60 1014.2
20260904165902 90 248 0.9 3.5 0.00 0.37 0.31 59 1014.2
20260904165623 91 131 0.9 3.5 0.00 0.37 0.31 56 1014.3
20260904165131 90 289 1.7 3.5 0.00 0.37 0.31 59 1014.3
20260904164400 90 71 1.7 5.2 0.00 0.37 0.31 58 1014.3
20260904163857 91 53 1.7 5.2 0.00 0.37 0.31 61 1014.5
20260904163626 90 60 1.7 5.2 0.00 0.37 0.31 60 1014.5
20260904162900 90 121 0.9 5.2 0.00 0.37 0.31 62 1014.6
20260904162359 89 145 0.9 5.2 0.00 0.37 0.31 64 1014.7
20260904161857 89 257 0.9 4.3 0.00 0.37 0.31 63 1014.6
20260904161358 89 107 0.9 4.3 0.00 0.37 0.31 64 1014.7
20260904160858 88 101 0.9 7.8 0.00 0.37 0.31 66 1014.7
20260904160719 88 174 1.7 7.8 0.00 0.37 0.31 62 1014.7
20260904160626 88 54 0.9 6.1 0.00 0.37 0.31 66 1014.6
20260904155352 87 239 0.9 6.1 0.00 0.37 0.31 68 1014.6
20260904155102 87 34 0.9 6.1 0.00 0.37 0.31 67 1014.5
20260904154339 87 117 0.9 4.3 0.00 0.37 0.31 68 1014.6
20260904153834 86 264 0.9 4.3 0.00 0.37 0.31 69 1014.7
20260904153328 84 150 0.9 6.1 0.00 0.37 0.31 73 1014.8
20260904152822 84 61 0.9 6.1 0.00 0.37 0.31 75 1014.8
20260904152805 84 51 0.9 3.5 0.00 0.37 0.31 74 1014.8
20260904151810 83 270 0.9 3.5 0.00 0.37 0.31 74 1014.7
20260904151304 83 78 0.9 5.2 0.00 0.37 0.31 75 1014.7
20260904150757 82 284 0.0 2.6 0.00 0.37 0.31 79 1014.8
20260904150252 82 149 0.0 2.6 0.00 0.37 0.31 76 1014.8
20260904145746 82 315 0.9 2.6 0.00 0.37 0.31 76 1014.8
20260904145240 82 329 0.9 4.3 0.00 0.37 0.31 78 1014.8
20260904144735 81 292 0.9 4.3 0.00 0.37 0.31 79 1014.9
20260904144449 80 246 0.9 3.5 0.00 0.37 0.31 81 1014.9
20260904143722 79 81 0.9 3.5 0.00 0.37 0.31 83 1014.9
20260904143216 79 261 0.9 3.5 0.00 0.37 0.31 85 1014.9
20260904142710 78 66 0.9 3.5 0.00 0.37 0.31 89 1014.9
20260904142204 76 44 0.0 1.7 0.00 0.37 0.31 95 1014.9
20260904141658 75 21 0.0 2.6 0.00 0.37 0.31 97 1014.9
20260904141153 75 59 0.0 2.6 0.00 0.37 0.31 96 1014.9
20260904140913 75 33 0.9 2.6 0.00 0.37 0.31 97 1014.9
20260904140140 75 56 0.9 2.6 0.00 0.37 0.31 97 1014.9
20260904135634 75 65 0.9 2.6 0.00 0.37 0.31 97 1014.9
20260904135128 74 59 0.0 2.6 0.00 0.37 0.31 97 1014.9
20260904134622 74 45 0.0 0.9 0.00 0.37 0.31 97 1015.0
20260904134117 74 45 0.0 1.7 0.00 0.37 0.31 97 1015.0
20260904133835 74 45 0.0 1.7 0.00 0.37 0.31 97 1014.9
20260904133324 74 45 0.0 0.0 0.00 0.37 0.31 96 1015.0
20260904132558 74 45 0.0 0.9 0.00 0.37 0.31 97 1015.0
20260904132053 73 45 0.0 1.7 0.00 0.37 0.31 97 1015.0
20260904131547 72 45 0.9 1.7 0.00 0.37 0.31 97 1015.0
20260904131039 72 68 0.0 0.9 0.00 0.37 0.31 96 1015.0
20260904130758 72 68 0.0 0.9 0.00 0.37 0.31 96 1015.1
20260904130028 72 68 0.0 1.7 0.00 0.37 0.31 96 1015.2
20260904125522 72 68 0.0 1.7 0.00 0.37 0.31 96 1015.2
20260904125016 71 68 0.0 1.7 0.00 0.37 0.31 96 1015.2
20260904125003 71 68 0.0 1.7 0.00 0.37 0.31 96 1015.2
20260904124455 71 66 0.0 1.7 0.00 0.37 0.31 96 1015.2
20260904123719 71 84 0.0 0.9 0.00 0.37 0.31 96 1015.2
20260904122952 71 84 0.0 0.9 0.00 0.37 0.31 96 1015.1
20260904122446 71 84 0.0 0.9 0.00 0.37 0.31 96 1015.0
20260904121941 71 84 0.0 1.7 0.00 0.37 0.31 96 1015.0
20260904121434 71 84 0.9 1.7 0.00 0.37 0.31 96 1014.9
20260904120928 71 113 0.9 3.5 0.00 0.37 0.31 96 1014.8
20260904120422 71 82 0.9 3.5 0.00 0.37 0.31 96 1014.7
20260904120135 71 90 0.9 3.5 0.00 0.37 0.31 96 1014.8
20260904115410 71 66 0.9 3.5 0.00 0.37 0.31 96 1014.9
20260904114904 71 81 0.9 1.7 0.00 0.37 0.31 96 1014.9
20260904114405 71 195 0.9 1.7 0.00 0.37 0.31 96 1014.7
20260904113904 70 62 0.9 1.7 0.00 0.37 0.31 96 1014.8
20260904113405 70 43 0.0 1.7 0.00 0.37 0.31 96 1014.4
20260904112901 70 43 0.0 1.7 0.00 0.37 0.31 96 1014.3
20260904112402 70 37 0.0 1.7 0.00 0.37 0.31 96 1014.4
20260904111901 70 89 0.0 0.9 0.00 0.37 0.31 96 1014.4
20260904111358 70 89 0.0 0.9 0.00 0.37 0.31 95 1014.3
20260904110858 70 89 0.0 0.9 0.00 0.37 0.31 95 1014.3
20260904110357 70 89 0.0 0.9 0.00 0.37 0.31 95 1014.2
20260904105853 70 89 0.0 0.9 0.00 0.37 0.31 95 1014.2
20260904105352 70 89 0.0 0.9 0.00 0.37 0.31 95 1014.1
20260904104854 70 89 0.0 0.0 0.00 0.37 0.31 95 1014.1
20260904104354 70 89 0.0 0.9 0.00 0.37 0.31 95 1014.1
20260904103854 70 89 0.0 0.9 0.00 0.37 0.31 95 1014.1
20260904103351 70 89 0.0 0.9 0.00 0.37 0.31 95 1014.0
20260904102851 70 89 0.0 0.9 0.00 0.37 0.31 95 1013.9
20260904102352 70 89 0.0 0.9 0.00 0.37 0.31 95 1014.0
20260904101849 70 89 0.0 0.9 0.00 0.37 0.31 95 1013.9
20260904101350 70 89 0.0 1.7 0.00 0.37 0.31 95 1013.9
20260904100848 70 89 0.0 1.7 0.00 0.37 0.31 95 1014.0
20260904100347 70 89 0.0 0.0 0.00 0.37 0.31 95 1013.9
20260904095848 70 89 0.0 0.0 0.00 0.37 0.31 95 1013.9
20260904095612 70 89 0.0 0.0 0.00 0.37 0.31 95 1013.9
20260904094847 70 89 0.0 0.0 0.00 0.37 0.31 95 1013.8
20260904094346 70 89 0.0 0.0 0.00 0.37 0.31 95 1013.7
20260904093847 70 89 0.0 0.0 0.00 0.37 0.31 95 1013.7
20260904093346 70 89 0.0 0.0 0.00 0.37 0.31 95 1013.5
20260904092848 70 89 0.0 0.0 0.00 0.37 0.31 95 1013.6
20260904092344 70 89 0.0 0.0 0.00 0.37 0.31 95 1013.7
20260904091843 70 89 0.0 0.0 0.00 0.37 0.31 95 1013.6
20260904091343 70 89 0.0 0.0 0.00 0.37 0.31 95 1013.7
20260904091101 70 89 0.0 0.0 0.00 0.37 0.31 95 1013.8
20260904090344 70 89 0.0 0.0 0.00 0.37 0.31 95 1013.7
20260904085842 70 89 0.0 0.0 0.00 0.37 0.31 95 1013.8
20260904085344 70 89 0.0 0.0 0.00 0.37 0.31 95 1013.9
20260904084843 70 89 0.0 0.0 0.00 0.37 0.31 95 1014.0
20260904084344 70 89 0.0 0.0 0.00 0.37 0.31 95 1013.9
20260904083839 70 89 0.0 0.0 0.00 0.37 0.31 95 1013.9
20260904083338 70 89 0.0 0.0 0.00 0.37 0.31 95 1013.8
20260904082839 70 89 0.0 0.0 0.00 0.37 0.31 95 1013.9
20260904082601 70 89 0.0 0.0 0.00 0.37 0.31 94 1013.8
20260904081840 70 89 0.0 0.0 0.00 0.37 0.31 94 1013.7
20260904081338 71 89 0.0 0.0 0.00 0.37 0.31 94 1013.7
20260904080838 71 89 0.0 0.0 0.00 0.37 0.31 94 1013.7
20260904080335 71 89 0.0 0.0 0.00 0.37 0.31 94 1013.8
20260904080111 71 89 0.0 0.0 0.00 0.37 0.31 94 1013.9
20260904075334 71 89 0.0 0.0 0.00 0.37 0.31 94 1014.0
20260904074830 71 89 0.0 0.0 0.00 0.37 0.31 94 1013.9
20260904074331 71 89 0.0 0.0 0.00 0.37 0.31 94 1013.9
20260904073832 71 89 0.0 0.0 0.00 0.37 0.31 94 1013.8
20260904073332 71 89 0.0 0.0 0.00 0.37 0.31 94 1013.8
20260904072831 71 89 0.0 0.0 0.00 0.37 0.31 94 1013.7
20260904072331 71 89 0.0 0.0 0.00 0.37 0.31 94 1013.6
20260904071831 71 89 0.0 0.0 0.00 0.37 0.31 94 1013.7
20260904071326 71 89 0.0 0.0 0.00 0.37 0.31 94 1013.7
20260904071048 71 89 0.0 0.0 0.01 0.37 0.31 94 1013.6
20260904070325 71 89 0.0 0.0 0.01 0.37 0.31 94 1013.6
20260904065825 71 89 0.0 0.0 0.01 0.37 0.31 94 1013.4
20260904065543 71 89 0.0 0.0 0.01 0.37 0.31 94 1013.2
20260904065045 71 89 0.0 0.0 0.01 0.37 0.31 94 1013.5
20260904064320 71 89 0.0 0.0 0.01 0.37 0.31 94 1013.5
20260904063818 71 89 0.0 0.0 0.01 0.37 0.31 94 1013.4
20260904063315 71 89 0.0 0.9 0.01 0.37 0.31 94 1013.5
20260904062814 72 89 0.0 1.7 0.02 0.37 0.31 94 1013.5
20260904062312 72 89 0.0 1.7 0.03 0.37 0.31 94 1013.5
20260904061809 72 61 0.9 3.5 0.03 0.37 0.31 94 1013.5
20260904061307 72 301 0.9 3.5 0.04 0.37 0.31 94 1013.1
20260904060806 72 250 0.0 1.7 0.05 0.36 0.30 93 1012.9
20260904060307 72 204 0.0 0.9 0.06 0.36 0.30 93 1012.9
20260904055806 72 204 0.0 0.9 0.08 0.36 0.30 93 1013.0
20260904055530 72 271 0.0 0.9 0.10 0.36 0.30 93 1013.1
20260904054759 72 271 0.0 1.7 0.12 0.36 0.30 93 1013.1
20260904054253 72 232 0.0 1.7 0.15 0.36 0.30 93 1013.0
20260904053747 72 189 0.0 1.7 0.18 0.36 0.30 93 1013.0
20260904053241 72 189 0.0 1.7 0.22 0.36 0.30 93 1013.5
20260904052735 72 121 0.0 0.0 0.24 0.35 0.29 92 1013.9
20260904052228 73 121 0.0 0.0 0.27 0.34 0.29 92 1014.3
20260904051723 73 121 0.0 0.9 0.27 0.33 0.28 92 1014.9
20260904051217 73 121 0.0 0.9 0.27 0.33 0.27 92 1015.0
20260904050711 73 121 0.0 0.9 0.25 0.31 0.25 92 1015.2
20260904050204 73 121 0.0 1.7 0.23 0.29 0.24 92 1015.5
20260904045659 73 121 0.0 1.7 0.22 0.28 0.22 91 1015.6
20260904045651 73 175 0.0 0.9 0.20 0.26 0.20 91 1015.9
20260904044647 73 231 0.0 0.9 0.17 0.23 0.18 91 1016.0
20260904044142 74 231 0.0 2.6 0.14 0.20 0.15 90 1016.5
20260904043636 74 234 0.9 4.3 0.11 0.17 0.11 90 1017.0
20260904043129 74 355 2.6 8.7 0.07 0.13 0.08 90 1016.9
20260904042622 75 338 3.5 8.7 0.04 0.10 0.04 90 1016.6
20260904042117 76 321 2.6 8.7 0.01 0.07 0.01 90 1016.9
20260904041611 77 123 2.6 7.8 0.00 0.06 0.00 91 1016.1
20260904041104 77 273 3.5 15.6 0.00 0.06 0.00 91 1016.1
20260904040559 78 38 2.6 15.6 0.00 0.06 0.00 92 1015.9
20260904040537 78 115 0.9 11.3 0.00 0.06 0.00 93 1015.9
20260904035547 78 88 0.9 1.7 0.01 0.06 0.06 92 1015.5
20260904035043 78 0 0.0 1.7 0.04 0.06 0.06 92 1014.7
20260904034535 78 117 0.0 0.0 0.06 0.06 0.06 92 1014.3
20260904034030 78 117 0.0 0.0 0.06 0.06 0.06 91 1014.3
20260904033522 79 117 0.0 0.0 0.06 0.06 0.06 91 1014.3
20260904033245 79 117 0.0 0.0 0.06 0.06 0.06 92 1014.3
20260904032516 79 117 0.0 0.0 0.06 0.06 0.06 91 1014.3
20260904032006 79 117 0.0 0.9 0.06 0.06 0.06 91 1014.2
20260904031459 79 117 0.0 0.9 0.06 0.06 0.06 91 1014.1
20260904030953 79 117 0.0 1.7 0.06 0.06 0.06 91 1014.1
20260904030653 80 183 0.9 1.7 0.05 0.05 0.05 91 1014.0
20260904030537 79 117 0.0 1.7 0.06 0.06 0.06 90 1014.2
20260904025435 80 148 0.9 7.0 0.04 0.04 0.05 90 1014.0
20260904024931 80 113 0.9 7.0 0.01 0.01 0.02 91 1014.4
20260904024423 80 36 0.9 2.6 0.00 0.00 0.00 90 1014.6
20260904023917 80 306 0.0 1.7 0.00 0.00 0.00 90 1014.5
20260904023411 80 198 0.0 0.0 0.00 0.00 0.00 90 1014.3
20260904023133 80 198 0.0 0.0 0.00 0.00 0.00 90 1014.2
20260904023111 80 198 0.0 0.0 0.00 0.00 0.00 90 1014.3
20260904021854 80 198 0.0 0.0 0.00 0.00 0.00 90 1014.2
20260904021347 80 198 0.0 0.0 0.00 0.00 0.00 90 1014.2
20260904020841 80 198 0.0 0.0 0.00 0.00 0.00 90 1014.3
20260904020554 80 198 0.0 0.0 0.00 0.00 0.00 90 1014.3
20260904015829 81 198 0.0 0.0 0.00 0.00 0.00 89 1014.4
20260904015323 81 198 0.0 0.0 0.00 0.00 0.00 89 1014.4
20260904014817 81 198 0.0 0.0 0.00 0.00 0.00 89 1014.4
20260904014311 81 198 0.0 0.0 0.00 0.00 0.00 89 1014.4
20260904013805 81 198 0.0 0.0 0.00 0.00 0.00 89 1014.3
20260904013300 81 198 0.0 0.0 0.00 0.00 0.00 89 1014.1
20260904012753 81 198 0.0 0.0 0.00 0.00 0.00 88 1014.1
20260904012247 81 198 0.0 0.0 0.00 0.00 0.00 88 1014.1
20260904011740 81 198 0.0 0.0 0.00 0.00 0.00 88 1014.2
20260904011235 81 198 0.0 0.0 0.00 0.00 0.00 88 1014.2
20260904010736 82 198 0.0 0.0 0.00 0.00 0.00 88 1014.3
20260904010232 82 198 0.0 0.0 0.00 0.00 0.00 87 1014.4
20260904005732 82 198 0.0 0.0 0.00 0.00 0.00 87 1014.4
20260904005235 82 198 0.0 0.0 0.00 0.00 0.00 87 1014.5
20260904004730 82 198 0.0 0.0 0.00 0.00 0.00 86 1014.5
20260904004716 82 198 0.0 0.0 0.00 0.00 0.00 86 1014.7
20260904003729 82 198 0.0 0.0 0.00 0.00 0.00 86 1014.7
20260904003229 82 198 0.0 0.0 0.00 0.00 0.00 86 1014.9
20260904002950 83 198 0.0 0.0 0.00 0.00 0.00 85 1014.9
20260904002455 83 198 0.0 0.0 0.00 0.00 0.00 85 1014.9
20260904001721 83 198 0.0 0.0 0.00 0.00 0.00 85 1014.8
20260904001221 83 198 0.0 0.0 0.00 0.00 0.00 85 1014.8
20260904000719 83 198 0.0 0.0 0.00 0.00 0.00 84 1014.8
20260904000218 83 198 0.0 0.0 0.00 0.00 0.00 84 1014.6
20260903235938 84 198 0.0 0.0 0.00 0.00 0.00 83 1014.7
20260903235437 84 198 0.0 0.0 0.00 0.00 0.00 83 1014.6
20260903234716 84 198 0.0 0.0 0.00 0.00 0.00 83 1014.5
20260903234213 84 198 0.0 0.0 0.00 0.00 0.00 82 1014.5
20260903233710 85 198 0.0 0.0 0.00 0.00 0.00 82 1014.2
20260903233210 85 198 0.0 0.0 0.00 0.00 0.00 82 1014.3
20260903232710 85 198 0.0 0.0 0.00 0.00 0.00 81 1014.2
20260903232203 85 198 0.0 0.0 0.00 0.00 0.00 81 1014.3